• En España
  • Lista de países
  • Para 7 días
  • Temperatura del agua
  • Mapa Satelital
  • El tiempo en el mapa
  • Informadores
  • user-avatar
    Iniciar sesión

    Tiempo cada hora Plehanovo

    Hoy, 21 Octubre, Domingo

    Tiempo Temperatura Precipitaciones Viento Presión Humedad
    00:00 0°C° 0 mm 3 mps 742 mmHg 84%
    01:00 0°C° 0 mm 3 mps 742 mmHg 83%
    02:00 0°C° 0 mm 3 mps 743 mmHg 82%
    03:00 -1°C° 0 mm 3 mps 743 mmHg 81%
    04:00 -1°C° 0 mm 3 mps 744 mmHg 80%
    05:00 -1°C° 0 mm 3 mps 744 mmHg 82%
    06:00 -2°C° 0 mm 3 mps 745 mmHg 83%
    07:00 -2°C° 0 mm 2 mps 745 mmHg 85%
    08:00 -1°C° 0 mm 3 mps 745 mmHg 81%
    09:00 -1°C° 0 mm 3 mps 746 mmHg 77%
    10:00 0°C° 0 mm 3 mps 746 mmHg 73%
    11:00 +1°C° 0 mm 3 mps 747 mmHg 72%
    12:00 +1°C° 0 mm 3 mps 747 mmHg 71%
    13:00 +2°C° 0 mm 3 mps 748 mmHg 71%
    14:00 +2°C° 0.1 mm 3 mps 748 mmHg 72%
    15:00 +2°C° 0.1 mm 3 mps 748 mmHg 74%
    16:00 +3°C° 0.1 mm 2 mps 748 mmHg 76%
    17:00 +2°C° 0.1 mm 2 mps 749 mmHg 81%
    18:00 +1°C° 0.1 mm 2 mps 749 mmHg 85%
    19:00 +1°C° 0.1 mm 2 mps 749 mmHg 90%
    20:00 +1°C° 0 mm 1 mps 749 mmHg 91%
    21:00 +1°C° 0 mm 1 mps 749 mmHg 92%
    22:00 +1°C° 0 mm 1 mps 750 mmHg 93%
    23:00 +1°C° 0 mm 1 mps 750 mmHg 94%

    Mañana, 22 Octubre, Lunes

    Tiempo Temperatura Precipitaciones Viento Presión Humedad
    00:00 +1°C° 0 mm 1 mps 750 mmHg 94%
    01:00 0°C° 0 mm 1 mps 750 mmHg 95%
    02:00 0°C° 0 mm 1 mps 750 mmHg 95%
    03:00 -2°C° 0 mm 2 mps 750 mmHg 96%
    04:00 -2°C° 0 mm 2 mps 751 mmHg 96%
    05:00 -2°C° 0 mm 2 mps 750 mmHg 96%
    06:00 -2°C° 0 mm 2 mps 750 mmHg 95%
    07:00 -2°C° 0 mm 2 mps 750 mmHg 95%
    08:00 -1°C° 0 mm 2 mps 750 mmHg 88%
    09:00 0°C° 0 mm 3 mps 750 mmHg 82%
    10:00 +1°C° 0 mm 3 mps 749 mmHg 75%
    11:00 +1°C° 0 mm 4 mps 749 mmHg 73%
    12:00 +3°C° 0 mm 4 mps 748 mmHg 70%
    13:00 +3°C° 0 mm 5 mps 748 mmHg 68%
    14:00 +2°C° 0 mm 5 mps 747 mmHg 69%
    15:00 +2°C° 0 mm 5 mps 746 mmHg 70%
    16:00 +2°C° 0 mm 5 mps 746 mmHg 72%
    17:00 +1°C° 0 mm 5 mps 745 mmHg 73%
    18:00 +1°C° 0 mm 5 mps 744 mmHg 73%
    19:00 +1°C° 0 mm 6 mps 744 mmHg 74%
    20:00 +1°C° 0 mm 6 mps 743 mmHg 76%
    21:00 +1°C° 0 mm 6 mps 743 mmHg 77%
    22:00 +1°C° 0 mm 6 mps 742 mmHg 79%
    23:00 +1°C° 0 mm 6 mps 742 mmHg 79%

    Pasado mañana, 23 Octubre, Martes

    Tiempo Temperatura Precipitaciones Viento Presión Humedad
    00:00 +1°C° 0 mm 6 mps 741 mmHg 80%
    01:00 +1°C° 0 mm 5 mps 741 mmHg 80%
    02:00 +1°C° 0 mm 5 mps 741 mmHg 81%
    03:00 +1°C° 0 mm 5 mps 740 mmHg 82%
    04:00 +1°C° 0 mm 5 mps 740 mmHg 83%
    05:00 +1°C° 0 mm 5 mps 740 mmHg 83%
    06:00 +1°C° 0 mm 5 mps 740 mmHg 83%
    07:00 +1°C° 0 mm 5 mps 739 mmHg 84%
    08:00 +1°C° 0 mm 5 mps 739 mmHg 82%
    09:00 +2°C° 0 mm 5 mps 739 mmHg 80%
    10:00 +2°C° 0 mm 5 mps 739 mmHg 78%
    11:00 +3°C° 0 mm 5 mps 739 mmHg 75%
    12:00 +5°C° 0 mm 5 mps 739 mmHg 73%
    13:00 +5°C° 0 mm 5 mps 739 mmHg 70%
    14:00 +5°C° 0 mm 5 mps 738 mmHg 72%
    15:00 +5°C° 0 mm 4 mps 738 mmHg 74%
    16:00 +5°C° 0 mm 4 mps 738 mmHg 76%
    17:00 +5°C° 0.2 mm 4 mps 738 mmHg 80%
    18:00 +6°C° 0.2 mm 4 mps 737 mmHg 83%
    19:00 +6°C° 0.2 mm 5 mps 737 mmHg 87%
    20:00 +6°C° 0.7 mm 5 mps 737 mmHg 86%
    21:00 +5°C° 0.7 mm 5 mps 736 mmHg 85%
    22:00 +5°C° 0.7 mm 5 mps 736 mmHg 83%
    23:00 +5°C° 0.5 mm 5 mps 736 mmHg 84%

    24 Octubre, Miércoles

    Tiempo Temperatura Precipitaciones Viento Presión Humedad
    00:00 +5°C° 0.5 mm 4 mps 735 mmHg 84%
    01:00 +4°C° 0.5 mm 4 mps 735 mmHg 84%
    02:00 +4°C° 0.3 mm 4 mps 735 mmHg 85%
    03:00 +4°C° 0.3 mm 4 mps 734 mmHg 86%
    04:00 +4°C° 0.3 mm 4 mps 734 mmHg 87%
    05:00 +4°C° 0.5 mm 4 mps 734 mmHg 88%
    06:00 +4°C° 0.5 mm 4 mps 733 mmHg 88%
    07:00 +4°C° 0.5 mm 4 mps 733 mmHg 89%
    08:00 +5°C° 0.6 mm 4 mps 733 mmHg 89%
    09:00 +5°C° 0.6 mm 4 mps 733 mmHg 89%
    10:00 +6°C° 0.6 mm 4 mps 732 mmHg 89%
    11:00 +6°C° 0.1 mm 4 mps 733 mmHg 88%
    12:00 +7°C° 0.1 mm 4 mps 733 mmHg 87%
    13:00 +7°C° 0.1 mm 4 mps 733 mmHg 86%
    14:00 +7°C° 0.1 mm 4 mps 733 mmHg 85%
    15:00 +8°C° 0.1 mm 3 mps 734 mmHg 85%
    16:00 +8°C° 0.1 mm 3 mps 734 mmHg 84%
    17:00 +7°C° 0 mm 3 mps 734 mmHg 86%
    18:00 +6°C° 0 mm 2 mps 735 mmHg 88%
    19:00 +6°C° 0 mm 2 mps 735 mmHg 91%
    20:00 +6°C° 0 mm 2 mps 735 mmHg 91%
    21:00 +5°C° 0 mm 2 mps 736 mmHg 92%
    22:00 +6°C° 0 mm 1 mps 736 mmHg 93%
    23:00 +6°C° 0 mm 1 mps 736 mmHg 94%

    25 Octubre, Jueves

    Tiempo Temperatura Precipitaciones Viento Presión Humedad
    00:00 +5°C° 0 mm 1 mps 736 mmHg 94%
    01:00 +5°C° 0 mm 1 mps 736 mmHg 95%
    02:00 +4°C° 0 mm 2 mps 737 mmHg 95%
    03:00 +3°C° 0 mm 2 mps 737 mmHg 95%
    04:00 +3°C° 0 mm 2 mps 737 mmHg 95%
    05:00 +3°C° 0 mm 2 mps 737 mmHg 95%
    06:00 +4°C° 0 mm 2 mps 737 mmHg 96%
    07:00 +3°C° 0 mm 3 mps 737 mmHg 96%
    08:00 +4°C° 0 mm 3 mps 737 mmHg 92%
    09:00 +5°C° 0 mm 4 mps 737 mmHg 87%
    10:00 +6°C° 0 mm 4 mps 737 mmHg 83%
    11:00 +7°C° 0 mm 4 mps 737 mmHg 82%
    12:00 +8°C° 0 mm 4 mps 736 mmHg 81%
    13:00 +8°C° 0 mm 5 mps 736 mmHg 79%
    14:00 +8°C° 0.6 mm 5 mps 736 mmHg 82%
    15:00 +8°C° 0.6 mm 5 mps 735 mmHg 84%
    16:00 +8°C° 0.6 mm 5 mps 735 mmHg 87%
    17:00 +8°C° 0.7 mm 5 mps 734 mmHg 84%
    18:00 +8°C° 0.7 mm 6 mps 734 mmHg 82%
    19:00 +8°C° 0.7 mm 6 mps 734 mmHg 79%
    20:00 +8°C° 0 mm 6 mps 734 mmHg 78%
    21:00 +8°C° 0 mm 6 mps 733 mmHg 77%
    22:00 +8°C° 0 mm 5 mps 733 mmHg 76%
    23:00 +8°C° 0 mm 5 mps 733 mmHg 74%

    26 Octubre, Viernes

    Tiempo Temperatura Precipitaciones Viento Presión Humedad
    00:00 +8°C° 0 mm 5 mps 733 mmHg 72%
    01:00 +8°C° 0 mm 5 mps 733 mmHg 70%
    02:00 +7°C° 0 mm 5 mps 732 mmHg 69%
    03:00 +7°C° 0 mm 5 mps 732 mmHg 68%
    04:00 +7°C° 0 mm 5 mps 732 mmHg 67%
    05:00 +7°C° 0.7 mm 5 mps 731 mmHg 70%
    06:00 +5°C° 0.7 mm 6 mps 731 mmHg 74%
    07:00 +5°C° 0.7 mm 6 mps 731 mmHg 77%
    08:00 +5°C° 0.7 mm 6 mps 731 mmHg 80%
    09:00 +6°C° 0.7 mm 5 mps 731 mmHg 82%
    10:00 +6°C° 0.7 mm 5 mps 731 mmHg 85%
    11:00 +6°C° 0.3 mm 5 mps 731 mmHg 86%
    12:00 +7°C° 0.3 mm 5 mps 731 mmHg 87%
    13:00 +7°C° 0.3 mm 4 mps 731 mmHg 88%
    14:00 +6°C° 0.6 mm 4 mps 731 mmHg 89%
    15:00 +7°C° 0.6 mm 3 mps 731 mmHg 89%
    16:00 +7°C° 0.6 mm 3 mps 731 mmHg 90%
    17:00 +7°C° 0.5 mm 2 mps 731 mmHg 91%
    18:00 +6°C° 0.5 mm 2 mps 731 mmHg 92%
    19:00 +6°C° 0.5 mm 2 mps 731 mmHg 92%
    20:00 +6°C° 0.3 mm 2 mps 731 mmHg 93%
    21:00 +6°C° 0.3 mm 1 mps 731 mmHg 93%
    22:00 +6°C° 0.3 mm 1 mps 731 mmHg 93%
    23:00 +6°C° 0.1 mm 1 mps 731 mmHg 93%
    Mostrar más